Franklin, NC

8:29 AM EDT on October 24, 2017 (GMT -0400)
Franklin

Weather History for K1A5 - January, 2012

Change the Weather History Date:

Tuesday, January 3, 2012

  Actual Average (KTOC) Record (KTOC)
Temperature  
Mean Temperature 22 °F -  
Max Temperature 28 °F 52 °F 62 °F (2017)
Min Temperature 17 °F 34 °F 21 °F (2014)
Degree Days  
Heating Degree Days 42    
Moisture  
Dew Point 7 °F    
Average Humidity 53    
Maximum Humidity 80    
Minimum Humidity 36    
Precipitation  
Precipitation 0.00 in - - ()
Sea Level Pressure  
Sea Level Pressure 30.24 in    
Wind  
Wind Speed 7 mph (NW)    
Max Wind Speed 15 mph    
Max Gust Speed 22 mph    
Visibility 9 miles    
Events Snow    
Averages and records for this station are not official NWS values.
T = Trace of Precipitation, MM = Missing Value Source: NWS Daily Summary

Daily Weather History Graph

Daily Weather History Graph

Search for Another Location

Airport or City:

Trip Planner

Search our weather history database for the weather conditions in past years. The results will help you decide how hot, cold, wet, or windy it might be!

Date:

Astronomy

Jan. 03, 2012 Rise Set
Actual Time 7:42 AM EST 5:33 PM EST
Civil Twilight 7:14 AM EST 6:01 PM EST
Nautical Twilight 6:42 AM EST 6:33 PM EST
Astronomical Twilight 6:11 AM EST 7:04 PM EST
Moon 1:17 PM EST (1/3) 2:36 AM EST (1/3)
Length of Visible Light 10h 47m
Length of Day
9h 51m
Waxing Gibbous, 72% of the Moon is Illuminated
Jan 3
Waxing Gibbous
Jan 9
Full
Jan 16
Last Quarter
Jan 23
New
Jan 30
First Quarter

Hourly Weather History & Observations

Time (EST) Temp. Windchill Dew Point Humidity Pressure Visibility Wind Dir Wind Speed Gust Speed Precip Events Conditions
12:15 AM 19.4 °F 12.8 °F 14.0 °F 80% 30.13 in 1.5 mi NNW 4.6 mph - N/A Snow Light Snow
12:35 AM 19.4 °F 10.4 °F 14.0 °F 80% 30.14 in 3.0 mi NNW 6.9 mph - N/A Snow Light Snow
12:55 AM 19.4 °F 8.6 °F 10.4 °F 68% 30.14 in 7.0 mi North 9.2 mph 16.1 mph N/A Snow Light Snow
1:15 AM 19.4 °F 10.4 °F 8.6 °F 63% 30.14 in 10.0 mi NW 6.9 mph - N/A   Overcast
1:35 AM 19.4 °F 10.4 °F 8.6 °F 63% 30.15 in 10.0 mi NNW 6.9 mph - N/A   Overcast
1:55 AM 19.4 °F 11.5 °F 6.8 °F 58% 30.15 in 10.0 mi WNW 5.8 mph - N/A   Overcast
2:15 AM 19.4 °F 8.6 °F 8.6 °F 63% 30.16 in 5.0 mi NW 9.2 mph - N/A Snow Light Snow
2:35 AM 19.4 °F 11.5 °F 10.4 °F 68% 30.16 in 2.5 mi NW 5.8 mph - N/A Snow Light Snow
2:55 AM 19.4 °F 8.6 °F 10.4 °F 68% 30.17 in 4.0 mi WNW 9.2 mph 17.3 mph N/A Snow Light Snow
3:35 AM 19.4 °F 10.4 °F 8.6 °F 63% 30.18 in 4.0 mi NW 6.9 mph - N/A Snow Light Snow
3:55 AM 19.4 °F 9.5 °F 8.6 °F 63% 30.18 in 10.0 mi NW 8.1 mph 19.6 mph N/A   Overcast
4:15 AM 19.4 °F 11.5 °F 8.6 °F 63% 30.19 in 7.0 mi WNW 5.8 mph - N/A Snow Light Snow
4:35 AM 19.4 °F 11.5 °F 8.6 °F 63% 30.19 in 10.0 mi WNW 5.8 mph - N/A   Overcast
5:15 AM 17.6 °F 8.2 °F 8.6 °F 68% 30.21 in 10.0 mi NW 6.9 mph - N/A   Overcast
5:35 AM 17.6 °F 6.4 °F 8.6 °F 68% 30.21 in 7.0 mi NW 9.2 mph - N/A Snow Light Snow
5:55 AM 17.6 °F 7.3 °F 8.6 °F 68% 30.22 in 5.0 mi WNW 8.1 mph - N/A Snow Light Snow
6:15 AM 17.6 °F 5.7 °F 8.6 °F 68% 30.23 in 7.0 mi NW 10.4 mph - N/A Snow Light Snow
6:35 AM 17.6 °F 8.2 °F 8.6 °F 68% 30.23 in 5.0 mi WNW 6.9 mph - N/A Snow Light Snow
6:55 AM 17.6 °F 9.3 °F 8.6 °F 68% 30.24 in 7.0 mi WNW 5.8 mph - N/A Snow Light Snow
7:15 AM 17.6 °F 9.3 °F 8.6 °F 68% 30.24 in 10.0 mi WNW 5.8 mph - N/A   Overcast
7:35 AM 17.6 °F 12.3 °F 6.8 °F 63% 30.24 in 10.0 mi WNW 3.5 mph - N/A   Mostly Cloudy
7:55 AM 17.6 °F 9.3 °F 6.8 °F 63% 30.25 in 10.0 mi NW 5.8 mph - N/A   Scattered Clouds
8:15 AM 17.6 °F 9.3 °F 5.0 °F 58% 30.25 in 10.0 mi WNW 5.8 mph - N/A   Clear
8:35 AM 19.4 °F 7.9 °F 5.0 °F 54% 30.26 in 10.0 mi NW 10.4 mph 16.1 mph N/A   Clear
8:55 AM 19.4 °F 7.2 °F 5.0 °F 54% 30.27 in 10.0 mi WNW 11.5 mph 18.4 mph N/A   Mostly Cloudy
9:15 AM 19.4 °F 10.4 °F 5.0 °F 54% 30.28 in 10.0 mi WNW 6.9 mph - N/A   Scattered Clouds
9:35 AM 21.2 °F 12.6 °F 6.8 °F 54% 30.29 in 10.0 mi North 6.9 mph - N/A   Scattered Clouds
9:55 AM 21.2 °F 9.5 °F 8.6 °F 58% 30.30 in 10.0 mi NW 11.5 mph 16.1 mph N/A   Mostly Cloudy
10:15 AM 21.2 °F 11.7 °F 8.6 °F 58% 30.30 in 10.0 mi WNW 8.1 mph 19.6 mph N/A   Mostly Cloudy
10:35 AM 23.0 °F 13.9 °F 8.6 °F 54% 30.30 in 10.0 mi NW 8.1 mph 18.4 mph N/A   Mostly Cloudy
10:55 AM 23.0 °F 17.0 °F 6.8 °F 50% 30.30 in 10.0 mi West 4.6 mph - N/A   Mostly Cloudy
11:15 AM 23.0 °F 14.7 °F 8.6 °F 54% 30.29 in 10.0 mi WNW 6.9 mph - N/A   Scattered Clouds
11:35 AM 24.8 °F 15.3 °F 8.6 °F 50% 30.29 in 10.0 mi NNW 9.2 mph 16.1 mph N/A   Scattered Clouds
11:55 AM 24.8 °F 15.3 °F 8.6 °F 50% 30.28 in 10.0 mi NNW 9.2 mph - N/A   Clear
12:15 PM 26.6 °F 18.2 °F 8.6 °F 47% 30.27 in 10.0 mi NW 8.1 mph 17.3 mph N/A   Clear
12:35 PM 26.6 °F 17.5 °F 8.6 °F 47% 30.26 in 10.0 mi NW 9.2 mph 17.3 mph N/A   Clear
12:55 PM 26.6 °F 15.2 °F 8.6 °F 47% 30.26 in 10.0 mi WNW 13.8 mph 18.4 mph N/A   Clear
1:15 PM 26.6 °F 19.1 °F 8.6 °F 47% 30.24 in 10.0 mi North 6.9 mph 16.1 mph N/A   Clear
1:35 PM 26.6 °F 16.8 °F 8.6 °F 47% 30.23 in 10.0 mi NNW 10.4 mph - N/A   Clear
1:55 PM 28.4 °F 17.0 °F 8.6 °F 43% 30.23 in 10.0 mi WNW 15.0 mph 21.9 mph N/A   Clear
2:15 PM 28.4 °F 18.5 °F 6.8 °F 40% 30.23 in 10.0 mi WNW 11.5 mph 17.3 mph N/A   Clear
2:35 PM 28.4 °F 19.1 °F 5.0 °F 37% 30.23 in 10.0 mi NW 10.4 mph 17.3 mph N/A   Clear
2:55 PM 28.4 °F 19.1 °F 6.8 °F 40% 30.23 in 10.0 mi NW 10.4 mph 20.7 mph N/A   Clear
3:15 PM 28.4 °F 19.1 °F 5.0 °F 37% 30.23 in 10.0 mi NNW 10.4 mph 21.9 mph N/A   Clear
3:55 PM 28.4 °F 20.4 °F 5.0 °F 37% 30.25 in 10.0 mi NW 8.1 mph 16.1 mph N/A   Clear
4:15 PM 28.4 °F 19.1 °F 5.0 °F 37% 30.25 in 10.0 mi WNW 10.4 mph 17.3 mph N/A   Clear
4:35 PM 26.6 °F 16.8 °F 3.2 °F 37% 30.25 in 10.0 mi NW 10.4 mph 16.1 mph N/A   Clear
4:55 PM 26.6 °F 18.2 °F 3.2 °F 37% 30.25 in 10.0 mi NNW 8.1 mph 17.3 mph N/A   Clear
5:15 PM 26.6 °F 19.1 °F 3.2 °F 37% 30.25 in 10.0 mi NNW 6.9 mph 16.1 mph N/A   Clear
5:35 PM 26.6 °F 21.2 °F 3.2 °F 37% 30.25 in 10.0 mi NNW 4.6 mph - N/A   Clear
5:55 PM 24.8 °F 16.9 °F 1.4 °F 36% 30.25 in 10.0 mi North 6.9 mph - N/A   Clear
6:15 PM 24.8 °F 16.1 °F 1.4 °F 36% 30.25 in 10.0 mi NNE 8.1 mph - N/A   Clear
6:35 PM 23.0 °F 14.7 °F 3.2 °F 43% 30.25 in 10.0 mi NNE 6.9 mph - N/A   Clear
6:55 PM 23.0 °F 14.7 °F 3.2 °F 43% 30.26 in 10.0 mi NNE 6.9 mph - N/A   Clear
7:15 PM 23.0 °F 17.0 °F 3.2 °F 43% 30.27 in 10.0 mi NNE 4.6 mph - N/A   Clear
7:35 PM 23.0 °F 13.9 °F 3.2 °F 43% 30.27 in 10.0 mi North 8.1 mph - N/A   Clear
7:55 PM 23.0 °F 12.4 °F 3.2 °F 43% 30.27 in 10.0 mi NNW 10.4 mph - N/A   Clear
8:15 PM 23.0 °F 11.1 °F 3.2 °F 43% 30.27 in 10.0 mi NNW 12.7 mph 17.3 mph N/A   Clear
8:35 PM 23.0 °F 12.4 °F 3.2 °F 43% 30.27 in 10.0 mi NNW 10.4 mph 17.3 mph N/A   Clear
8:55 PM 24.8 °F 20.5 °F 3.2 °F 40% 30.27 in 10.0 mi NW 3.5 mph - N/A   Clear
9:15 PM 23.0 °F 17.0 °F 3.2 °F 43% 30.27 in 10.0 mi North 4.6 mph - N/A   Clear
9:35 PM 23.0 °F 18.4 °F 5.0 °F 46% 30.27 in 10.0 mi ENE 3.5 mph - N/A   Clear
10:15 PM 19.4 °F - 8.6 °F 63% 30.27 in 10.0 mi Calm Calm - N/A   Clear
10:35 PM 19.4 °F - 8.6 °F 63% 30.28 in 10.0 mi Calm Calm - N/A   Clear
10:55 PM 17.6 °F - 10.4 °F 73% 30.27 in 10.0 mi Calm Calm - N/A   Clear
11:15 PM 17.6 °F - 10.4 °F 73% 30.27 in 10.0 mi Calm Calm - N/A   Clear
11:35 PM 15.8 °F - 10.4 °F 79% 30.28 in 10.0 mi Calm Calm - N/A   Clear
11:55 PM 15.8 °F - 10.4 °F 79% 30.28 in 10.0 mi Calm Calm - N/A   Clear